Location: Amherst
(42.5000°N, 72.5000°W)
Time: 00:42:19
(UTC-04:00)

ISS - Pass Details

Date: 14 July 2018
Orbit: 402 x 408 km, 51.6° (Epoch: 18 July)

Event Time Altitude Azimuth Distance (km) Brightness Sun altitude
Exits shadow 01:18:16 24° 34° (NE) 882 -1.6 -25.6°
Drops below altitude 10° 01:19:51 10° 48° (NE) 1,469 -0.4 -25.6°
Sets 01:22:00 0° 54° (NE) 2,333 0.6 -25.5°
